FW8597 Weather Reports


time (UTC)temp
C
wind
direction
speed
KPH
gust
KPH
rain 1hr
cm
rain 24hr
cm
rain mn
cm
humidity
%
barometer
mb
20260508214113 20 199 3.2 11.3 0.00 0.00 0.00 54 1014.6
20260508213610 20 215 6.4 9.7 0.00 0.00 0.00 54 1014.4
20260508213106 20 200 9.7 14.5 0.00 0.00 0.00 53 1014.2
20260508212603 20 210 6.4 9.7 0.00 0.00 0.00 53 1014.3
20260508212059 20 177 4.8 8.0 0.00 0.00 0.00 53 1014.5
20260508211554 20 194 3.2 8.0 0.00 0.00 0.00 52 1014.3
20260508211051 20 201 4.8 4.8 0.00 0.00 0.00 52 1014.5
20260508210548 20 197 9.7 11.3 0.00 0.00 0.00 52 1014.4
20260508210045 20 178 0.0 4.8 0.00 0.00 0.00 51 1014.4
20260508205542 20 237 8.0 9.7 0.00 0.00 0.00 50 1014.4
20260508205038 20 214 4.8 8.0 0.00 0.00 0.00 51 1014.7
20260508204535 20 196 8.0 12.9 0.00 0.00 0.00 50 1014.6
20260508204031 21 186 8.0 11.3 0.00 0.00 0.00 51 1014.7
20260508203527 21 202 8.0 12.9 0.00 0.00 0.00 50 1014.6
20260508203023 21 146 6.4 8.0 0.00 0.00 0.00 49 1014.7
20260508202520 20 170 6.4 9.7 0.00 0.00 0.00 49 1014.8
20260508202017 21 208 9.7 11.3 0.00 0.00 0.00 47 1014.5
20260508201514 21 160 9.7 16.1 0.00 0.00 0.00 49 1014.6
20260508201011 21 177 4.8 11.3 0.00 0.00 0.00 50 1014.8
20260508200508 20 242 6.4 11.3 0.00 0.00 0.00 50 1015.0
20260508200003 21 174 11.3 14.5 0.00 0.00 0.00 46 1015.1
20260508195500 21 234 4.8 9.7 0.00 0.00 0.00 47 1015.0
20260508194956 21 174 1.6 3.2 0.00 0.00 0.00 49 1015.2
20260508194454 20 192 0.0 3.2 0.00 0.00 0.00 48 1015.4
20260508193950 21 221 8.0 11.3 0.00 0.00 0.00 46 1015.2
20260508193447 21 283 4.8 11.3 0.00 0.00 0.00 47 1015.4
20260508192943 21 208 3.2 8.0 0.00 0.00 0.00 48 1015.8
20260508192440 20 161 9.7 12.9 0.00 0.00 0.00 46 1015.7
20260508191937 20 242 4.8 11.3 0.00 0.00 0.00 48 1015.8
20260508191435 21 175 6.4 14.5 0.00 0.00 0.00 47 1015.9
20260508190931 21 230 3.2 8.0 0.00 0.00 0.00 46 1015.7
20260508190428 21 250 9.7 14.5 0.00 0.00 0.00 46 1015.9
20260508185925 21 239 1.6 1.6 0.00 0.00 0.00 45 1016.1
20260508185422 20 212 3.2 12.9 0.00 0.00 0.00 49 1015.9
20260508184919 21 311 9.7 12.9 0.00 0.00 0.00 47 1016.2
20260508184417 21 322 8.0 9.7 0.00 0.00 0.00 48 1016.1
20260508183913 20 248 6.4 8.0 0.00 0.00 0.00 47 1016.3
20260508183410 20 219 6.4 9.7 0.00 0.00 0.00 47 1016.5
20260508182905 20 156 9.7 16.1 0.00 0.00 0.00 48 1016.6
20260508182403 20 251 4.8 9.7 0.00 0.00 0.00 48 1016.5
20260508181858 21 168 4.8 4.8 0.00 0.00 0.00 46 1016.8
20260508181355 21 218 1.6 8.0 0.00 0.00 0.00 48 1016.6
20260508180852 21 259 3.2 12.9 0.00 0.00 0.00 49 1016.8
20260508180349 21 229 6.4 12.9 0.00 0.00 0.00 48 1016.9
20260508175844 20 317 8.0 11.3 0.00 0.00 0.00 52 1016.8
20260508175341 20 207 6.4 9.7 0.00 0.00 0.00 49 1016.9
20260508174840 20 217 6.4 11.3 0.00 0.00 0.00 48 1016.8
20260508174337 19 303 1.6 4.8 0.00 0.00 0.00 51 1016.8
20260508173833 18 335 6.4 9.7 0.00 0.00 0.00 53 1016.9
20260508173331 19 202 1.6 4.8 0.00 0.00 0.00 51 1017.0
20260508172826 20 176 8.0 12.9 0.00 0.00 0.00 47 1017.3
20260508172323 20 209 11.3 11.3 0.00 0.00 0.00 46 1017.3
20260508171820 20 129 4.8 12.9 0.00 0.00 0.00 49 1017.4
20260508171316 18 174 6.4 11.3 0.00 0.00 0.00 52 1017.5
20260508170813 18 171 8.0 9.7 0.00 0.00 0.00 50 1017.5
20260508170311 19 204 6.4 12.9 0.00 0.00 0.00 48 1017.5
20260508165808 20 0 3.2 3.2 0.00 0.00 0.00 48 1017.6
20260508165306 20 241 3.2 8.0 0.00 0.00 0.00 50 1017.7
20260508164801 20 213 6.4 9.7 0.00 0.00 0.00 48 1017.8
20260508164257 20 188 4.8 8.0 0.00 0.00 0.00 48 1017.8
20260508163755 20 141 4.8 9.7 0.00 0.00 0.00 50 1018.0
20260508163254 19 135 1.6 8.0 0.00 0.00 0.00 51 1017.9
20260508162748 19 191 9.7 11.3 0.00 0.00 0.00 51 1018.0
20260508162246 19 235 6.4 11.3 0.00 0.00 0.00 50 1018.1
20260508161743 19 237 0.0 11.3 0.00 0.00 0.00 53 1018.1
20260508161240 19 213 4.8 9.7 0.00 0.00 0.00 51 1018.1
20260508160738 18 111 4.8 9.7 0.00 0.00 0.00 50 1018.2
20260508160237 18 197 6.4 9.7 0.00 0.00 0.00 51 1018.1
20260508155732 18 239 4.8 11.3 0.00 0.00 0.00 54 1018.3
20260508155229 19 147 8.0 11.3 0.00 0.00 0.00 52 1018.4
20260508154726 18 236 6.4 9.7 0.00 0.00 0.00 55 1018.6
20260508154223 18 192 1.6 4.8 0.00 0.00 0.00 52 1018.4
20260508153720 18 169 0.0 4.8 0.00 0.00 0.00 54 1018.4
20260508153217 18 128 0.0 1.6 0.00 0.00 0.00 56 1018.5
20260508152714 18 308 6.4 9.7 0.00 0.00 0.00 53 1018.5
20260508152209 19 320 4.8 8.0 0.00 0.00 0.00 53 1018.5
20260508151706 18 98 3.2 4.8 0.00 0.00 0.00 54 1018.6
20260508151203 18 91 3.2 4.8 0.00 0.00 0.00 54 1018.6
20260508150659 18 163 3.2 8.0 0.00 0.00 0.00 55 1018.5
20260508150156 18 9 4.8 8.0 0.00 0.00 0.00 55 1018.6
20260508145652 18 15 4.8 8.0 0.00 0.00 0.00 57 1018.3
20260508145148 18 303 3.2 4.8 0.00 0.00 0.00 57 1018.4
20260508144646 18 19 4.8 8.0 0.00 0.00 0.00 58 1018.5
20260508144144 17 80 1.6 3.2 0.00 0.00 0.00 58 1018.5
20260508143641 17 106 1.6 9.7 0.00 0.00 0.00 57 1018.7
20260508143138 17 192 4.8 8.0 0.00 0.00 0.00 57 1018.7
20260508142634 17 313 3.2 4.8 0.00 0.00 0.00 58 1018.6
20260508142131 17 153 0.0 8.0 0.00 0.00 0.00 55 1018.8
20260508141627 17 11 3.2 8.0 0.00 0.00 0.00 56 1018.7
20260508141125 17 186 8.0 9.7 0.00 0.00 0.00 59 1018.7
20260508140622 17 167 4.8 8.0 0.00 0.00 0.00 60 1018.9
20260508140119 17 26 1.6 4.8 0.00 0.00 0.00 61 1018.9
20260508135614 17 141 1.6 8.0 0.00 0.00 0.00 61 1018.6
20260508135111 17 152 3.2 3.2 0.00 0.00 0.00 61 1018.9
20260508134608 16 89 1.6 1.6 0.00 0.00 0.00 60 1018.8
20260508134105 16 94 1.6 3.2 0.00 0.00 0.00 62 1018.6
20260508133602 16 211 3.2 4.8 0.00 0.00 0.00 63 1018.5
20260508133059 16 240 3.2 9.7 0.00 0.00 0.00 64 1018.6
20260508132556 16 134 3.2 8.0 0.00 0.00 0.00 64 1018.6
20260508132053 16 250 3.2 8.0 0.00 0.00 0.00 65 1018.6
20260508131548 15 18 1.6 3.2 0.00 0.00 0.00 66 1018.7
20260508131045 15 334 3.2 3.2 0.00 0.00 0.00 68 1018.8
20260508130542 15 28 3.2 4.8 0.00 0.00 0.00 73 1018.7
20260508130039 15 251 3.2 3.2 0.00 0.00 0.00 78 1018.4
20260508125534 15 15 1.6 3.2 0.00 0.00 0.00 83 1018.7
20260508125032 15 315 1.6 1.6 0.00 0.00 0.00 85 1018.7
20260508124530 14 335 1.6 3.2 0.00 0.00 0.00 86 1018.5
20260508124027 13 166 1.6 1.6 0.00 0.00 0.00 87 1018.5
20260508123526 13 136 1.6 1.6 0.00 0.00 0.00 88 1018.3
20260508123022 13 120 0.0 1.6 0.00 0.00 0.00 88 1018.2
20260508122519 13 122 0.0 1.6 0.00 0.00 0.00 88 1018.2
20260508122016 12 167 1.6 1.6 0.00 0.00 0.00 88 1018.2
20260508121514 12 116 1.6 1.6 0.00 0.00 0.00 89 1018.3
20260508121012 11 274 1.6 3.2 0.00 0.00 0.00 89 1018.1
20260508120509 11 156 0.0 1.6 0.00 0.00 0.00 89 1017.8
20260508120007 11 359 1.6 1.6 0.00 0.00 0.00 89 1017.9
20260508115504 11 104 0.0 0.0 0.00 0.00 0.00 89 1017.7
20260508115001 10 124 0.0 0.0 0.00 0.00 0.00 89 1017.8
20260508114458 10 126 0.0 0.0 0.00 0.00 0.00 89 1017.6
20260508113954 10 151 0.0 0.0 0.00 0.00 0.00 89 1017.8
20260508113452 8 12 0.0 0.0 0.00 0.00 0.00 89 1017.7
20260508112949 8 24 0.0 0.0 0.00 0.00 0.00 89 1017.6
20260508112445 7 27 0.0 0.0 0.00 0.00 0.00 89 1017.5
20260508111942 7 41 0.0 0.0 0.00 0.00 0.00 89 1017.2
20260508111439 7 349 0.0 0.0 0.00 0.00 0.00 89 1017.3
20260508110936 7 259 0.0 0.0 0.00 0.00 0.00 89 1017.3
20260508110434 7 266 0.0 0.0 0.00 0.00 0.00 89 1017.2
20260508105933 6 197 0.0 0.0 0.00 0.00 0.00 89 1016.9
20260508105430 6 196 0.0 1.6 0.00 0.00 0.00 89 1017.0
20260508104927 6 199 0.0 0.0 0.00 0.00 0.00 88 1017.0
20260508104425 6 199 0.0 0.0 0.00 0.00 0.00 88 1016.8
20260508103921 6 333 0.0 0.0 0.00 0.00 0.00 88 1016.6
20260508103418 6 344 1.6 3.2 0.00 0.00 0.00 88 1016.6
20260508102915 6 214 0.0 1.6 0.00 0.00 0.00 88 1016.5
20260508102414 7 192 0.0 0.0 0.00 0.00 0.00 88 1016.5
20260508101911 6 192 0.0 0.0 0.00 0.00 0.00 88 1016.2
20260508101408 6 193 0.0 0.0 0.00 0.00 0.00 88 1016.0
20260508100905 7 191 0.0 0.0 0.00 0.00 0.00 88 1016.0
20260508100404 7 192 0.0 0.0 0.00 0.00 0.00 88 1016.0
20260508095859 7 204 0.0 0.0 0.00 0.00 0.00 88 1016.1
20260508095358 7 184 0.0 0.0 0.00 0.00 0.00 88 1016.1
20260508094854 7 201 0.0 0.0 0.00 0.00 0.00 88 1016.0
20260508094351 7 180 0.0 0.0 0.00 0.00 0.00 88 1015.9
20260508093848 7 178 0.0 0.0 0.00 0.00 0.00 88 1015.9
20260508093345 7 120 0.0 1.6 0.00 0.00 0.00 87 1016.1
20260508092843 7 323 1.6 3.2 0.00 0.00 0.00 88 1016.1
20260508092341 7 200 0.0 1.6 0.00 0.00 0.00 88 1015.9
20260508091838 8 159 0.0 1.6 0.00 0.00 0.00 87 1015.7
20260508091335 8 57 0.0 0.0 0.00 0.00 0.00 87 1015.9
20260508090833 8 227 0.0 3.2 0.00 0.00 0.00 87 1016.2
20260508090331 8 36 0.0 3.2 0.00 0.00 0.00 87 1015.7
20260508085826 8 187 0.0 0.0 0.00 0.00 0.00 87 1015.7
20260508085323 8 213 0.0 1.6 0.00 0.00 0.00 87 1015.8
20260508084820 8 179 0.0 0.0 0.00 0.00 0.00 87 1015.8
20260508084317 8 336 3.2 3.2 0.00 0.00 0.00 87 1015.5
20260508083814 8 21 0.0 3.2 0.00 0.00 0.00 87 1015.6
20260508083312 8 153 1.6 1.6 0.00 0.00 0.00 87 1015.4
20260508082811 8 175 0.0 1.6 0.00 0.00 0.00 87 1015.6
20260508082309 8 174 0.0 1.6 0.00 0.00 0.00 87 1015.6
20260508081806 8 161 0.0 1.6 0.00 0.00 0.00 87 1015.4
20260508081303 8 181 0.0 0.0 0.00 0.00 0.00 87 1015.3
20260508080800 8 164 0.0 0.0 0.00 0.00 0.00 87 1015.4
20260508080258 8 182 1.6 3.2 0.00 0.00 0.00 87 1015.1
20260508075754 8 175 0.0 0.0 0.00 0.00 0.00 87 1015.5
20260508075251 8 188 0.0 0.0 0.00 0.00 0.00 87 1015.3
20260508074749 8 182 0.0 0.0 0.00 0.00 0.00 87 1015.3
20260508074246 8 181 0.0 0.0 0.00 0.00 0.00 87 1015.3
20260508073743 8 173 0.0 0.0 0.00 0.00 0.00 87 1015.1
20260508073241 8 166 0.0 0.0 0.00 0.00 0.00 87 1015.1
20260508072736 8 181 0.0 0.0 0.00 0.00 0.00 87 1015.0
20260508072233 8 170 0.0 0.0 0.00 0.00 0.00 87 1015.1
20260508071731 8 203 0.0 0.0 0.00 0.00 0.00 87 1015.2
20260508071229 8 167 0.0 0.0 0.00 0.00 0.00 87 1015.0
20260508070726 8 201 0.0 0.0 0.00 0.00 0.00 87 1015.0
20260508070225 8 172 0.0 0.0 0.00 0.00 0.00 87 1015.0
20260508065722 8 195 0.0 0.0 0.00 0.00 0.00 87 1015.0
20260508065220 8 270 0.0 0.0 0.00 0.00 0.00 87 1014.9
20260508064717 8 204 0.0 0.0 0.00 0.00 0.00 87 1015.1
20260508064215 8 165 0.0 0.0 0.00 0.00 0.00 87 1015.1
20260508063712 9 185 0.0 0.0 0.00 0.00 0.00 87 1014.9
20260508063210 9 199 0.0 0.0 0.00 0.00 0.00 86 1014.9
20260508062707 9 182 0.0 0.0 0.00 0.00 0.00 86 1015.0
20260508062204 9 182 0.0 0.0 0.00 0.00 0.00 86 1014.8
20260508061701 9 181 0.0 0.0 0.00 0.00 0.00 86 1014.8
20260508061159 9 193 0.0 1.6 0.00 0.00 0.00 86 1014.9
20260508060655 10 197 0.0 0.0 0.00 0.00 0.00 86 1014.9
20260508060153 10 199 0.0 1.6 0.00 0.00 0.00 86 1014.9
20260508055648 10 161 1.6 1.6 0.00 0.00 0.00 86 1015.0
20260508055145 10 183 1.6 3.2 0.00 0.00 0.00 86 1014.8
20260508054641 10 185 1.6 1.6 0.00 0.00 0.00 86 1014.9
20260508054139 10 210 3.2 3.2 0.00 0.00 0.00 86 1014.8
20260508053636 10 207 0.0 1.6 0.00 0.00 0.00 86 1014.8
20260508053133 10 158 0.0 0.0 0.00 0.00 0.00 86 1015.1
20260508052631 10 203 0.0 0.0 0.00 0.00 0.00 85 1015.0
20260508052128 10 190 0.0 0.0 0.00 0.00 0.00 85 1014.9
20260508051624 10 188 0.0 0.0 0.00 0.00 0.00 85 1014.8
20260508051119 10 174 0.0 0.0 0.00 0.00 0.00 85 1014.6
20260508050615 10 159 0.0 0.0 0.00 0.00 0.00 84 1014.8
20260508050114 10 169 0.0 0.0 0.00 0.00 0.00 84 1014.8
20260508045609 10 189 0.0 0.0 0.00 0.00 0.00 84 1014.7
20260508045107 10 46 0.0 0.0 0.00 0.00 0.00 83 1014.7
20260508044604 10 198 0.0 1.6 0.00 0.00 0.00 83 1014.8
20260508044100 10 140 0.0 3.2 0.00 0.00 0.00 83 1014.6
20260508043557 11 168 4.8 4.8 0.00 0.00 0.00 82 1014.6
20260508043054 11 198 0.0 1.6 0.00 0.00 0.00 82 1014.4
20260508042551 10 164 1.6 1.6 0.00 0.00 0.00 82 1014.5
20260508042048 11 197 1.6 3.2 0.00 0.00 0.00 81 1014.6
20260508041544 11 186 1.6 1.6 0.00 0.00 0.00 80 1014.4
20260508041041 11 230 3.2 3.2 0.00 0.00 0.00 80 1014.3
20260508040538 11 172 1.6 1.6 0.00 0.00 0.00 80 1014.3
20260508040036 11 127 1.6 3.2 0.00 1.04 1.04 80 1014.4
20260508035532 11 178 0.0 1.6 0.00 1.04 1.04 79 1014.4
20260508035029 11 165 0.0 1.6 0.00 1.04 1.04 79 1014.2
20260508034526 11 206 1.6 3.2 0.00 1.04 1.04 79 1014.4
20260508034023 11 205 0.0 0.0 0.00 1.04 1.04 78 1014.4
20260508033521 11 180 0.0 0.0 0.00 1.04 1.04 77 1014.3
20260508033019 12 180 0.0 0.0 0.00 1.04 1.04 76 1014.6
20260508032515 12 164 0.0 0.0 0.00 1.04 1.04 76 1014.3
20260508032013 12 202 0.0 0.0 0.00 1.04 1.04 75 1014.3
20260508031510 12 219 0.0 0.0 0.00 1.04 1.04 73 1014.4
20260508031005 12 262 0.0 4.8 0.00 1.04 1.04 72 1014.3
20260508030503 13 186 0.0 1.6 0.00 1.04 1.04 72 1014.3
20260508030001 13 341 4.8 4.8 0.00 1.04 1.04 71 1014.3
20260508025456 13 355 4.8 4.8 0.00 1.04 1.04 71 1014.3
20260508024954 13 343 3.2 4.8 0.00 1.04 1.04 71 1014.1
20260508024449 13 286 1.6 3.2 0.00 1.04 1.04 71 1014.2
20260508023946 13 357 1.6 3.2 0.00 1.04 1.04 70 1013.9
20260508023443 13 5 3.2 4.8 0.00 1.04 1.04 70 1014.1
20260508022941 13 301 4.8 4.8 0.00 1.04 1.04 69 1013.8
20260508022436 13 346 6.4 9.7 0.00 1.04 1.04 68 1013.9
20260508021933 13 346 4.8 9.7 0.00 1.04 1.04 67 1013.8
20260508021429 14 340 4.8 9.7 0.00 1.04 1.04 67 1013.8
20260508020925 14 336 9.7 12.9 0.00 1.04 1.04 66 1013.7
20260508020423 14 339 6.4 8.0 0.00 1.04 1.04 66 1013.6
20260508015920 14 344 6.4 9.7 0.00 1.04 1.04 65 1013.6
20260508015418 14 25 4.8 9.7 0.00 1.04 1.04 65 1013.5
20260508014914 14 355 6.4 14.5 0.00 1.04 1.04 65 1013.4
20260508014411 14 354 11.3 17.7 0.00 1.04 1.04 65 1013.3
20260508013906 15 347 4.8 11.3 0.00 1.04 1.04 64 1013.3
20260508013403 15 356 9.7 14.5 0.00 1.04 1.04 64 1013.1
20260508012901 15 346 11.3 14.5 0.00 1.04 1.04 64 1013.3
20260508012357 15 359 4.8 11.3 0.00 1.04 1.04 64 1012.8
20260508011855 15 328 4.8 8.0 0.00 1.04 1.04 64 1012.9
20260508011353 15 329 8.0 16.1 0.00 1.04 1.04 64 1012.8
20260508010849 15 351 6.4 17.7 0.00 1.04 1.04 64 1012.7
20260508010347 15 349 11.3 16.1 0.00 1.04 1.04 64 1012.5
20260508005844 15 341 8.0 17.7 0.00 1.04 1.04 64 1012.3
20260508005341 15 331 11.3 14.5 0.00 1.04 1.04 64 1012.2
20260508004837 15 0 11.3 16.1 0.00 1.04 1.04 64 1012.0
20260508004333 15 359 11.3 14.5 0.00 1.04 1.04 65 1012.1
20260508003830 15 10 11.3 14.5 0.00 1.04 1.04 65 1012.1
20260508003327 15 14 14.5 20.9 0.00 1.04 1.04 65 1012.0
20260508002824 15 357 14.5 20.9 0.00 1.04 1.04 66 1011.8
20260508002321 15 347 11.3 22.5 0.00 1.04 1.04 67 1011.6
20260508001817 15 311 4.8 11.3 0.00 1.04 1.04 68 1011.5
20260508001313 16 12 8.0 14.5 0.00 1.04 1.04 67 1011.2
20260508000809 16 321 11.3 20.9 0.00 1.04 1.04 67 1011.2
20260508000306 16 7 16.1 22.5 0.00 1.04 1.04 67 1010.8
20260507235802 16 343 14.5 27.4 0.00 1.04 1.04 67 1010.8
20260507235300 16 2 17.7 25.7 0.00 1.04 1.04 67 1010.7
20260507234757 16 342 17.7 29.0 0.00 1.04 1.04 66 1011.0
20260507234253 17 5 14.5 24.1 0.00 1.04 1.04 66 1010.7
20260507233750 17 12 17.7 22.5 0.00 1.04 1.04 66 1010.5
20260507233248 17 4 16.1 27.4 0.00 1.04 1.04 66 1010.4
20260507232745 18 12 14.5 20.9 0.00 1.04 1.04 66 1010.4
20260507232242 18 325 11.3 20.9 0.00 1.04 1.04 65 1010.2
20260507231738 18 316 20.9 25.7 0.00 1.04 1.04 65 1010.4
20260507231235 18 332 16.1 22.5 0.00 1.04 1.04 65 1010.1
20260507230732 19 30 14.5 20.9 0.00 1.04 1.04 65 1010.3
20260507230230 19 353 22.5 25.7 0.00 1.04 1.04 63 1010.2
20260507225729 20 341 14.5 24.1 0.00 1.04 1.04 64 1010.3
20260507225226 20 325 9.7 14.5 0.00 1.04 1.04 63 1009.7
20260507224721 20 20 12.9 20.9 0.00 1.04 1.04 63 1009.8
20260507224218 21 344 11.3 14.5 0.00 1.04 1.04 64 1009.8
20260507223714 21 10 14.5 20.9 0.00 1.04 1.04 64 1009.6
20260507223211 21 354 9.7 20.9 0.00 1.04 1.04 64 1009.3
20260507222708 21 352 11.3 22.5 0.00 1.04 1.04 64 1009.3
20260507222204 21 344 8.0 12.9 0.00 1.04 1.04 65 1008.9
20260507221701 21 349 12.9 14.5 0.00 1.04 1.04 66 1009.0
20260507221157 21 327 11.3 12.9 0.00 1.04 1.04 66 1008.9
20260507220654 22 345 9.7 14.5 0.00 1.04 1.04 65 1008.8
20260507220153 22 352 11.3 12.9 0.00 1.04 1.04 65 1008.7
20260507215648 22 352 14.5 16.1 0.00 1.04 1.04 65 1008.5
20260507215146 22 304 6.4 16.1 0.00 1.04 1.04 65 1008.5
20260507214643 22 30 6.4 12.9 0.00 1.04 1.04 65 1008.6